Change the Weather History Date:

Monday, November 12, 2012

  Actual Average Record
Temperature  
Mean Temperature 30 °F -  
Max Temperature 37 °F 33 °F 51 °F (2008)
Min Temperature 24 °F 23 °F 1 °F (1989)
Degree Days  
Heating Degree Days 34    
Moisture  
Dew Point 23 °F    
Average Humidity 71    
Maximum Humidity 100    
Minimum Humidity 48    
Precipitation  
Precipitation 0.00 in - - ()
Sea Level Pressure  
Sea Level Pressure 29.86 in    
Wind  
Wind Speed 3 mph (ENE)    
Max Wind Speed 12 mph    
Max Gust Speed 16 mph    
Visibility 10 miles    
Events      
Averages and records for this station are not official NWS values.
T = Trace of Precipitation, MM = Missing Value Source: NWS Daily Summary

Daily Weather History Graph

Daily Weather History Graph

Search for Another Location

Airport or City:

Trip Planner

Search our weather history database for the weather conditions in past years. The results will help you decide how hot, cold, wet, or windy it might be!

Date:

Astronomy

Nov. 12, 2012 Rise Set
Actual Time 8:44 AM AKST 4:13 PM AKST
Civil Twilight 7:53 AM AKST 5:04 PM AKST
Nautical Twilight 6:59 AM AKST 5:57 PM AKST
Astronomical Twilight 6:09 AM AKST 6:48 PM AKST
Moon 7:09 AM AKST (11/12) 3:31 PM AKST (11/12)
Length of Visible Light 9h 10m
Length of Day
7h 29m
Waning Crescent, 2% of the Moon is Illuminated
Nov 12
Waning Crescent
Nov 13
New
Nov 20
First Quarter
Nov 28
Full
Dec 6
Last Quarter

Hourly Weather History & Observations

Time (AKST) Temp. Windchill Dew Point Humidity Pressure Visibility Wind Dir Wind Speed Gust Speed Precip Events Conditions
12:16 AM 24.8 °F 20.5 °F 23.0 °F 93% 29.76 in 10.0 mi ENE 3.5 mph - N/A   Clear
12:36 AM 24.8 °F - 23.0 °F 93% 29.77 in 10.0 mi Calm Calm - N/A   Clear
12:56 AM 24.8 °F 19.1 °F 24.8 °F 100% 29.77 in 10.0 mi East 4.6 mph - N/A   Clear
1:16 AM 26.6 °F 22.6 °F 21.2 °F 80% 29.77 in 10.0 mi NE 3.5 mph - N/A   Clear
1:36 AM 24.8 °F 20.5 °F 19.4 °F 80% 29.77 in 10.0 mi East 3.5 mph - N/A   Clear
1:56 AM 26.6 °F - 24.8 °F 93% 29.78 in 10.0 mi Calm Calm - N/A   Clear
2:16 AM 26.6 °F 21.2 °F 21.2 °F 80% 29.78 in 10.0 mi ENE 4.6 mph - N/A   Clear
2:36 AM 26.6 °F - 24.8 °F 93% 29.78 in 10.0 mi Calm Calm - N/A   Clear
2:56 AM 26.6 °F - 24.8 °F 93% 29.78 in 10.0 mi Calm Calm - N/A   Partly Cloudy
3:16 AM 26.6 °F 22.6 °F 21.2 °F 80% 29.78 in 10.0 mi SE 3.5 mph - N/A   Partly Cloudy
3:36 AM 28.4 °F 24.6 °F 24.8 °F 86% 29.79 in 10.0 mi ENE 3.5 mph - N/A   Clear
3:56 AM 28.4 °F - 24.8 °F 86% 29.78 in 10.0 mi Calm Calm - N/A   Clear
4:16 AM 28.4 °F - 24.8 °F 86% 29.79 in 10.0 mi Calm Calm - N/A   Partly Cloudy
4:36 AM 26.6 °F 22.6 °F 21.2 °F 80% 29.79 in 10.0 mi East 3.5 mph - N/A   Clear
4:56 AM 26.6 °F - 23.0 °F 86% 29.80 in 10.0 mi Calm Calm - N/A   Clear
5:16 AM 26.6 °F - 23.0 °F 86% 29.80 in 10.0 mi Calm Calm - N/A   Partly Cloudy
5:36 AM 28.4 °F - 26.6 °F 93% 29.80 in 10.0 mi Calm Calm - N/A   Mostly Cloudy
6:16 AM 28.4 °F 24.6 °F 24.8 °F 86% 29.80 in 10.0 mi ENE 3.5 mph - N/A   Scattered Clouds
6:36 AM 28.4 °F 24.6 °F 24.8 °F 86% 29.80 in 10.0 mi ENE 3.5 mph - N/A   Scattered Clouds
6:56 AM 28.4 °F 23.3 °F 24.8 °F 86% 29.81 in 10.0 mi ENE 4.6 mph - N/A   Scattered Clouds
7:16 AM 30.2 °F - 24.8 °F 80% 29.80 in 10.0 mi Calm Calm - N/A   Scattered Clouds
7:36 AM 28.4 °F 23.3 °F 23.0 °F 80% 29.80 in 10.0 mi East 4.6 mph - N/A   Scattered Clouds
7:56 AM 28.4 °F - 23.0 °F 80% 29.81 in 10.0 mi Calm Calm - N/A   Mostly Cloudy
8:16 AM 28.4 °F 24.6 °F 24.8 °F 86% 29.81 in 10.0 mi SSE 3.5 mph - N/A   Mostly Cloudy
8:36 AM 26.6 °F - 21.2 °F 80% 29.82 in 10.0 mi Calm Calm - N/A   Mostly Cloudy
8:47 AM 28.4 °F 24.6 °F 26.6 °F 93% 29.82 in 20.0 mi NNE 3.5 mph - N/A   Mostly Cloudy
9:36 AM 30.2 °F - 24.8 °F 80% 29.83 in 10.0 mi Calm Calm - N/A   Mostly Cloudy
9:56 AM 30.2 °F - 26.6 °F 86% 29.84 in 10.0 mi Calm Calm - N/A   Mostly Cloudy
10:36 AM 32.0 °F - 26.6 °F 80% 29.84 in 10.0 mi Calm Calm - N/A   Mostly Cloudy
10:56 AM 32.0 °F - 26.6 °F 80% 29.84 in 10.0 mi Calm Calm - N/A   Mostly Cloudy
11:16 AM 33.8 °F - 24.8 °F 70% 29.85 in 10.0 mi Calm Calm - N/A   Mostly Cloudy
11:36 AM 33.8 °F - 26.6 °F 75% 29.86 in 10.0 mi Calm Calm - N/A   Mostly Cloudy
11:56 AM 35.6 °F - 26.6 °F 70% 29.86 in 10.0 mi Calm Calm - N/A   Mostly Cloudy
12:56 PM 37.4 °F - 26.6 °F 65% 29.86 in 10.0 mi Calm Calm - N/A   Mostly Cloudy
1:16 PM 37.4 °F 32.1 °F 26.6 °F 65% 29.85 in 10.0 mi ESE 6.9 mph - N/A   Mostly Cloudy
1:36 PM 37.4 °F 34.9 °F 26.6 °F 65% 29.86 in 10.0 mi East 3.5 mph - N/A   Mostly Cloudy
1:56 PM 37.4 °F - 28.4 °F 70% 29.86 in 10.0 mi Calm Calm - N/A   Mostly Cloudy
2:16 PM 37.4 °F 31.4 °F 26.6 °F 65% 29.86 in 10.0 mi ESE 8.1 mph - N/A   Mostly Cloudy
2:36 PM 37.4 °F 31.4 °F 24.8 °F 60% 29.86 in 10.0 mi ENE 8.1 mph - N/A   Mostly Cloudy
2:56 PM 37.4 °F 32.1 °F 24.8 °F 60% 29.87 in 10.0 mi NNE 6.9 mph - N/A   Mostly Cloudy
3:36 PM 37.4 °F - 23.0 °F 56% 29.88 in 10.0 mi Calm Calm - N/A   Mostly Cloudy
3:56 PM 33.8 °F 28.6 °F 24.8 °F 70% 29.87 in 10.0 mi East 5.8 mph - N/A   Mostly Cloudy
4:16 PM 37.4 °F 34.9 °F 21.2 °F 52% 29.88 in 10.0 mi NNE 3.5 mph - N/A   Mostly Cloudy
4:36 PM 37.4 °F - 21.2 °F 52% 29.89 in 10.0 mi Calm Calm - N/A   Mostly Cloudy
4:56 PM 37.4 °F 33.8 °F 23.0 °F 56% 29.89 in 10.0 mi NNE 4.6 mph - N/A   Partly Cloudy
5:16 PM 37.4 °F 34.9 °F 19.4 °F 48% 29.89 in 10.0 mi North 3.5 mph - N/A   Partly Cloudy
5:36 PM 37.4 °F 34.9 °F 21.2 °F 52% 29.90 in 10.0 mi NE 3.5 mph - N/A   Partly Cloudy
6:16 PM 33.8 °F 30.8 °F 17.6 °F 52% 29.91 in 10.0 mi WNW 3.5 mph - N/A   Partly Cloudy
6:56 PM 35.6 °F - 19.4 °F 52% 29.92 in 10.0 mi Calm Calm - N/A   Clear
7:16 PM 32.0 °F - 17.6 °F 55% 29.93 in 10.0 mi Calm Calm - N/A   Clear
7:36 PM 32.0 °F 28.7 °F 17.6 °F 55% 29.93 in 10.0 mi East 3.5 mph - N/A   Clear
8:16 PM 33.8 °F 30.8 °F 19.4 °F 56% 29.94 in 10.0 mi NW 3.5 mph - N/A   Clear
8:36 PM 30.2 °F - 15.8 °F 55% 29.95 in 10.0 mi Calm Calm - N/A   Clear
8:56 PM 33.8 °F - 17.6 °F 52% 29.96 in 10.0 mi Calm Calm - N/A   Clear
9:16 PM 32.0 °F 27.5 °F 17.6 °F 55% 29.96 in 10.0 mi SSW 4.6 mph - N/A   Clear
9:36 PM 35.6 °F 28.6 °F 19.4 °F 52% 29.97 in 10.0 mi SE 9.2 mph - N/A   Clear
10:16 PM 33.8 °F 27.7 °F 17.6 °F 52% 29.97 in 10.0 mi East 6.9 mph - N/A   Clear
10:36 PM 30.2 °F 21.9 °F 17.6 °F 60% 29.98 in 10.0 mi NE 9.2 mph - N/A   Clear
10:56 PM 33.8 °F 27.7 °F 15.8 °F 48% 29.98 in 10.0 mi East 6.9 mph - N/A   Clear
11:16 PM 33.8 °F 28.6 °F 17.6 °F 52% 29.99 in 10.0 mi East 5.8 mph - N/A   Clear
11:36 PM 33.8 °F 25.3 °F 17.6 °F 52% 29.99 in 10.0 mi ESE 11.5 mph 16.1 mph N/A   Clear
11:56 PM 33.8 °F 26.4 °F 17.6 °F 52% 29.99 in 10.0 mi East 9.2 mph - N/A   Clear